Location: Newark
(45.5000°N, 11.4167°E)
Time: 04:04:44
(UTC+00:00)

Transit 2A Rocket - Pass Details

Date: 30 August 2019
Orbit: 593 x 910 km, 66.7° (Epoch: 14 October)

Event Time Altitude Azimuth Distance (km) Brightness Sun altitude
Rises 15:39:39 0° 184° (S) 3,441 8.6 23.0°
Reaches altitude 10° 15:42:24 10° 176° (S) 2,469 7.8 22.5°
Maximum altitude 15:47:28 34° 113° (ESE) 1,308 6.0 21.7°
Drops below altitude 10° 15:52:12 10° 50° (NE) 2,301 7.1 20.8°
Sets 15:54:40 0° 41° (NE) 3,177 7.8 20.4°
